Regional Weather Roundup
Issued by NWS

Home | Current Version | Previous Version | Text Only | Print | Product List | Glossary On
Versions: 1 2 3 4 5 6 7 8 9 10 11 12 13 14 15 16 17 18 19 20 21 22 23 24 25 26 27 28 29 30 31 32 33 34 35 36 37 38 39 40 41 42 43 44 45 46 47 48 49 50
000
ASUS43 KMPX 180001
RWRMN
WEATHER ROUNDUP FOR MINNESOTA
NATIONAL WEATHER SERVICE TWIN CITIES/CHANHASSEN MN
700 PM CDT THU APR 17 2014


NOTE: "FAIR" INDICATES FEW OR NO CLOUDS BELOW 12,000 FEET WITH NO
SIGNIFICANT WEATHER AND/OR OBSTRUCTIONS TO VISIBILITY. N/A MEANS
CURRENT SKY AND/OR WEATHER CONDITIONS ARE NOT AVAILABLE.

MNZ060>063-068>070-180100-
   Twin Cities Metro

CITY           SKY/WX    TMP DP  RH WIND       PRES   REMARKS
TWIN CITIES    PTCLDY    41  26  55 NW5       30.29S
6HR MIN TEMP:  34; 6HR MAX TEMP:  42;

ST PAUL        CLEAR     41  25  53 NW5       30.29F
CRYSTAL        CLEAR     39  24  55 NW5       30.28S
BLAINE         PTCLDY    41  27  56 CALM      30.28F
EDEN PRAIRIE   CLEAR     41  24  51 NW5       30.27F
6HR MIN TEMP:  35; 6HR MAX TEMP:  42;

LAKEVILLE      CLEAR     39  27  60 NW3       30.28S
SOUTH ST PAUL  CLEAR     43  26  50 CALM      30.28F
LAKE ELMO      FAIR      41  28  60 CALM      30.28F
$$
MNZ001>005-007-008-013>017-022>024-027-028-180100-
   Northwest Minnesota

CITY           SKY/WX    TMP DP  RH WIND       PRES   REMARKS
BEMIDJI        SUNNY     40   3  22 N6        30.24S
HALLOCK        CLOUDY    39  12  33 NW8       30.29F
ROSEAU         SUNNY     39   7  26 E5        30.28S
WARROAD        SUNNY     36   9  32 CALM      30.29S
THIEF RVR FALL PTSUNNY   41   9  26 CALM      30.28S
CROOKSTON      MOSUNNY   39  16  38 NW5       30.29F
FOSSTON        MOSUNNY   39  10  30 W5        30.26F
DETROIT LAKES  SUNNY     41  14  33 NW7       30.26S
MOORHEAD       SUNNY     43   7  22 NE3       30.28S
PARK RAPIDS    SUNNY     43   1  17 W3        30.22S
$$
MNZ006-009>011-018-025>026-180100-
   North Central Minnesota

CITY           SKY/WX    TMP DP  RH WIND       PRES   REMARKS
BAUDETTE       SUNNY     37   8  30 N8        30.27F
FLAG ISLAND    SUNNY     36   3  25 CALM      30.27F
INTL FALLS     SUNNY     38  15  39 CALM      30.25F
6HR MIN TEMP:  36; 6HR MAX TEMP:  39;

WASKISH        SUNNY     39  18  41 CALM      30.25F
BIG FORK       SUNNY     37  18  44 CALM      30.26S
LONGVILLE      SUNNY     39  16  38 W3        30.23F
GRAND RAPIDS   SUNNY     37  18  44 N6        30.25S
CRANE LAKE     PTCLDY    36  21  55 N5        30.29S
ORR            CLOUDY    34  19  55 CALM      30.24F
COOK           CLOUDY    32  21  64 N3        30.27S
$$
MNZ012-019>021-037-180100-
   Northeast Minnesota

CITY           SKY/WX    TMP DP  RH WIND       PRES   REMARKS
DULUTH         MOCLDY    35  20  54 N8        30.24S WCI  29
6HR MIN TEMP:  34; 6HR MAX TEMP:  36;

ELY            CLOUDY    30  21  69 N3        30.25F
HIBBING        CLOUDY    35  21  56 N9        30.26S WCI  28
EVELETH        CLOUDY    32  21  64 N6        30.27S WCI  26
DULUTH HARBOR  CLOUDY    37  25  60 CALM      30.29S
TWO HARBORS    CLOUDY    34  21  60 NW6       30.24S WCI  29
SILVER BAY     CLEAR     34  25  69 CALM      30.24S
GRAND MARAIS     N/A     33  30  88 W3        30.25S
G MARAIS ARPRT FLURRIES  28  23  80 NW7       30.21R WCI  21
$$
MNZ029>031-032-039>041-046>048-054>057-064-180100-
   West Central Minnesota

CITY           SKY/WX    TMP DP  RH WIND       PRES   REMARKS
FERGUS FALLS   SUNNY     43  12  28 W8        30.24S
WHEATON        SUNNY     46  21  36 SW3       30.29S
MORRIS         SUNNY     43  18  36 CALM      30.27S
ALEXANDRIA     SUNNY     40  15  36 W5        30.26F
ELBOW LAKE     FAIR      41  18  38 CALM      30.26S
WADENA         SUNNY     41  16  36 SW9       30.23F
GLENWOOD       SUNNY     39  16  38 CALM      30.27F
APPLETON       SUNNY     43  18  36 CALM      30.29S
BENSON         SUNNY     41  18  38 CALM      30.29S
ORTONVILLE     SUNNY     37  19  48 SW6       30.29S
MADISON        SUNNY     43  19  39 CALM      30.30S
WILLMAR        FAIR      39  21  48 CALM      30.30S
$$
MNZ033>034-036-042>043-049>051-058-059-180100-
   Central Minnesota

CITY           SKY/WX    TMP DP  RH WIND       PRES   REMARKS
ST CLOUD       SUNNY     41  21  44 CALM      30.27S
6HR MIN TEMP:  37; 6HR MAX TEMP:  44;

SAUK CENTRE    FAIR      39  16  39 W5        30.26F
PAYNESVILLE    SUNNY     37  21  52 CALM      30.28F
AITKIN         SUNNY     45  16  31 CALM      30.23R
PINE RIVER     SUNNY     43  18  36 NE8       30.26S
BRAINERD       SUNNY     48  17  29 CALM      30.24S
STAPLES        SUNNY     43   7  22 W6        30.23F
LONG PRAIRIE   FAIR      39  14  35 SW6       30.26F
LITTLE FALLS   SUNNY     39  21  48 S5        30.26S
LITCHFIELD     SUNNY     37  25  60 CALM      30.29S
BUFFALO        SUNNY     38  24  55 SW3       30.29F
MAPLE LAKE     SUNNY     39  26  59 SW5       30.29S
$$
MNZ037-044-045-052-053-180100-
   East Central Minnesota

CITY           SKY/WX    TMP DP  RH WIND       PRES   REMARKS
PRINCETON      SUNNY     39  21  48 W3        30.28S
MORA           CLEAR     39  19  45 NW3       30.27F
CAMBRIDGE      CLEAR     43  27  52 W3        30.26S
RUSH CITY      CLEAR     38  24  55 CALM      30.27F
MOOSE LAKE     CLEAR     39  23  52 NE3       30.23F
HINCKLEY       FAIR      41  25  52 S3        30.25F
CLOQUET        CLEAR     36  21  55 N6        30.25S
MCGREGOR       CLOUDY    41  23  48 NE6       30.24S
$$
MNZ071>073-080-081-089-090-097-098-180100-
   Southwest Minnesota

CITY           SKY/WX    TMP DP  RH WIND       PRES   REMARKS
MONTEVIDEO     SUNNY     43  19  39 N3        30.31R
GRANITE FALLS  SUNNY     35  25  67 SW6       30.32R WCI  30
CANBY          SUNNY     37  20  51 CALM      30.31S
MARSHALL       SUNNY     36  21  55 N5        30.30S
REDWOOD FALLS  SUNNY     38  25  59 N7        30.30S
OLIVIA         SUNNY     34  28  80 W5        30.29S WCI  30
PIPESTONE      MOSUNNY   39  16  38 CALM      30.26F
WINDOM         MOSUNNY   39  27  60 N3        30.28S
WORTHINGTON    MOSUNNY   39  21  48 N7        30.29S
JACKSON        MOSUNNY   41  28  60 VRB5      30.27S
TRACY          SUNNY     37  26  65 CALM      30.30R
SLAYTON        SUNNY     37  23  58 N5        30.28F
$$
MNZ065>067-074>077-082>085-091>093-180100-
   South Central Minnesota

CITY           SKY/WX    TMP DP  RH WIND       PRES   REMARKS
MANKATO        MOSUNNY   39  28  65 NW3       30.29F
NEW ULM        SUNNY     39  27  60 NE5       30.29S
ST JAMES       SUNNY     43  28  56 NW5       30.29F
FAIRMONT       MOSUNNY   43  28  56 N9        30.29S
GLENCOE        SUNNY     39  24  53 NW6       30.28F
FARIBAULT      PTCLDY    43  27  52 CALM      30.28F
OWATONNA       PTCLDY    37  28  70 N3        30.28S
WASECA         PTCLDY    41  32  70 W8        30.30S
ALBERT LEA     PTCLDY    37  30  75 NW5       30.27F
$$
MNZ078>079-086>088-094>096-180100-
   Southeast Minnesota

CITY           SKY/WX    TMP DP  RH WIND       PRES   REMARKS
ROCHESTER      CLOUDY    36  27  69 N8        30.28R
6HR MIN TEMP:  33; 6HR MAX TEMP:  38;

RED WING       CLOUDY    43  27  52 N3        30.28S
STANTON        CLEAR     41  29  61 CALM      30.26F
DODGE CENTER   CLOUDY    39  30  70 N8        30.27S
WINONA         CLOUDY    37  30  75 NW8       30.30S
AUSTIN         MOCLDY    37  30  75 N5        30.27F
PRESTON        CLOUDY    37  30  74 N6        30.28S
$$
ABBREVIATIONS USED IN REMARKS
   TC - TEMPERATURES IN CELSIUS
  WCI - WIND CHILL INDEX
   HX - HEAT INDEX
  VSB - VISIBILITY
$$


USA.gov is the U.S. government's official web portal to all federal, state and local government web resources and services.